STARLINK-4276 (53179 NORAD) Tracking and Keplerian Element Data

This shows tracking and keplerian element data for the satellite.

Feedback or suggestion? Click here.




ElementValue
Catalog53179
NameSTARLINK-4276
Epoch Orbit1193
Epoch Day270.25001157
Epoch Year2022
RAAN52.1782
Inclination53.2146
Eccentricity0.0003654
Argument of Perigee6.5466
Mean Anonmoly113.6034
Mean Motion15.7316726
Decay Rate0.0004495
L11 53179U 22083AZ 22270.25001157 .00044950 00000+0 32335-3 0 9994
L22 53179 53.2146 52.1782 0003654 6.5466 113.6034 15.73167260 11938

Live tracking and technical data element details for STARLINK-4276 (NORAD 53179). STARLINK-4276 can be tracked NOW for your location showing map with azimuth and elevation plus other details from your city location.

Track the satellite on the map from your city or location and see movement details for azimuth, elevation, latitude, longitude, range, height, and movement on the map or in text.







IsCatalogInMostPopularTable: catalog: 53179, numindb: 7
Update: records affected: 1



GetName: 53179 STARLINK-4276

Hit Count: updated at: Fri, 30 Sep 2022 03:58:32 GMT